User: anonymous   Login
Location: Vancouver
(49.2500°N, 123.1330°W)
Time: 19:08:13
(UTC-07:00)
Language:

S-56A Canister/Altair - Orbit

View from above orbital plane
View from above orbital plane
View from above satellite
View from above satellite

Ground track
Ground track

The orbit data is extracted from the following two-line orbital elements,

1    82U 61004B   17234.53112177 +.00000076 +00000-0 +10210-3 0  9995
2    82 038.8551 051.5665 1170953 153.5895 212.9626 12.25858763681406
Epoch (UTC): 22 August 2017 12:44:48
Eccentricity: 0.1170953
inclination: 38.8551°
perigee height: 637 km
apogee height: 2497 km
right ascension of ascending node: 51.5665°
argument of perigee: 153.5895°
revolutions per day: 12.25858763
mean anomaly at epoch: 212.9626°
orbit number at epoch: 68140

The dashed part of the orbit path shows where the satellite is in the earth's shadow,  

DLR